Location: Brompton
(51.4000°N, 0.5333°E)
Time: 17:36:07
(UTC+00:00)

SJ 16-02 - Pass Details

Date: 11 May 2021
Orbit: 606 x 616 km, 75.0° (Epoch: 21 June)

Event Time Altitude Azimuth Distance (km) Brightness Sun altitude
Exits shadow 22:56:21 - 239° (WSW) 2,756 4.5 -19.3°
Reaches altitude 10° 22:58:36 10° 252° (WSW) 1,980 3.9 -19.4°
Maximum altitude 23:02:13 24° 307° (NW) 1,284 3.5 -19.5°
Drops below altitude 10° 23:05:52 10° 2° (N) 1,991 5.1 -19.7°
Sets 23:08:29 0° 17° (NNE) 2,900 5.9 -19.7°
